[[{"header":{"parameterUnit":"m.s-1","parameterCategory":1,"la1":30.2992,"la2":30.254,"lo1":-89.0895,"lo2":-89.0443,"dy":0.0025,"dx":0.0025,"nx":19,"ny":19,"refTime":"2026-03-13T03:00:00:Z","depth":0,"parameterNumber":2,"parameterNumberName":"U-component_of_WINDS"},"data":[0,0,0,-0.9506,-0.9507,-0.9518,-0.9518,-0.9536,-0.9536,0,0,0,0,0,0,0,0,0,0,0,-0.9504,-0.9504,-0.9506,-0.9507,-0.9518,-0.9518,-0.9536,-0.9536,0,0,0,0,0,0,0,0,0,0,0,-0.9504,-0.9504,-0.9504,-0.9507,-0.9518,-0.9518,-0.9536,-0.9527,0,0,0,0,0,0,0,0,0,0,-0.9515,-0.9513,-0.9504,-0.9504,-0.9507,-0.9518,-0.9518,-0.9526,-0.9527,-0.9532,0,-0.9536,0,-0.9536,-0.9538,-0.9538,0,0,0,-0.9506,-0.9512,-0.9514,-0.9504,-0.9507,-0.9518,-0.9513,-0.9527,-0.9528,-0.9534,-0.9536,-0.9537,-0.9537,-0.9538,-0.9538,-0.9567,-0.9567,0,0,-0.9505,-0.9506,-0.9513,-0.9515,-0.9512,-0.9512,-0.9513,-0.9527,-0.953,-0.9536,-0.9537,-0.9537,-0.9538,-0.9538,-0.9567,-0.9567,0,0,0,-0.9504,-0.9506,-0.9508,-0.9514,-0.9516,-0.9513,-0.9514,-0.953,-0.953,-0.9537,-0.9537,-0.9538,-0.9538,-0.9566,-0.9567,-0.9575,0,0,0,-0.9504,-0.9505,-0.9508,-0.9508,-0.9516,-0.9523,-0.9516,-0.9529,-0.9531,-0.9537,-0.9538,-0.9539,-0.9566,-0.9567,-0.9574,-0.9578,0,0,0,-0.9503,-0.9505,-0.9507,-0.9508,-0.9513,-0.9523,-0.9524,-0.953,-0.9531,-0.9538,-0.9539,-0.9566,-0.9567,-0.9573,-0.9577,-0.9586,0,0,0,-0.9502,-0.9513,-0.9507,-0.952,-0.9513,-0.9527,-0.9524,-0.9535,-0.9542,-0.9538,-0.9566,-0.9567,-0.9573,-0.9576,-0.9585,-0.9592,-0.9596,0,0,-0.9516,-0.9515,-0.9523,-0.9517,-0.9533,-0.9526,-0.9543,-0.9549,-0.9549,-0.9561,-0.9562,-0.9574,-0.9577,-0.9585,-0.9615,-0.9618,0,0,0,-0.9527,-0.9533,-0.9537,-0.9544,-0.9549,-0.9554,-0.9557,-0.956,-0.957,-0.9555,-0.958,-0.9582,-0.9587,-0.959,-0.9592,-0.9597,-0.9569,-0.9568,-0.9568,-0.9548,-0.9548,-0.9561,-0.9564,-0.9571,-0.9575,-0.9581,-0.9585,-0.9583,-0.959,-0.9592,-0.9611,-0.9615,-0.9616,-0.9621,-0.9597,-0.9597,-0.9597,-0.9597,-0.9569,-0.9576,-0.9575,-0.9587,-0.9589,-0.9599,-0.9605,-0.9604,-0.9615,-0.9608,-0.9612,-0.9604,-0.9619,-0.9623,-0.9598,-0.9598,-0.9598,-0.9598,-0.9598,-0.9581,-0.9585,-0.9589,-0.96,-0.9608,-0.9611,-0.9622,-0.9623,-0.9624,-0.9629,-0.9633,-0.9632,-0.9632,-0.9631,-0.9631,-0.9631,-0.9631,-0.9631,-0.9631,-0.9592,-0.9596,-0.9604,-0.9613,-0.9618,-0.9625,-0.9632,-0.9638,-0.9644,-0.9644,-0.9644,-0.9642,-0.9621,-0.9615,-0.9632,-0.9632,-0.9632,-0.9632,-0.9632,-0.9611,-0.9608,-0.9621,-0.9626,-0.9637,-0.9646,-0.9648,-0.9661,-0.9666,-0.9671,-0.967,-0.9654,-0.9652,-0.965,-0.9645,-0.9669,-0.9669,-0.9669,-0.9669,-0.9621,-0.9621,-0.9636,-0.9645,-0.9654,-0.9658,-0.9674,-0.9681,-0.9687,-0.969,-0.9688,-0.9682,-0.968,-0.9679,-0.9677,-0.9672,-0.9703,-0.9703,-0.9703,-0.9633,-0.9635,-0.9647,-0.9653,-0.9662,-0.967,-0.9686,-0.9698,-0.9704,-0.9704,-0.9693,-0.9692,-0.9683,-0.9679,-0.9677,-0.9673,-0.9665,0,0]},{"header":{"parameterUnit":"m.s-1","parameterCategory":1,"la1":30.2992,"la2":30.254,"lo1":-89.0895,"lo2":-89.0443,"dy":0.0025,"dx":0.0025,"nx":19,"ny":19,"refTime":"2026-03-13T03:00:00:Z","depth":0,"parameterNumber":3,"parameterNumberName":"V-component_of_WINDS"},"data":[0,0,0,2.9582,2.9581,2.9563,2.9563,2.9533,2.9533,0,0,0,0,0,0,0,0,0,0,0,2.9585,2.9584,2.9582,2.9581,2.9563,2.9563,2.9533,2.9533,0,0,0,0,0,0,0,0,0,0,0,2.9585,2.9585,2.9584,2.9581,2.9563,2.9563,2.9533,2.9549,0,0,0,0,0,0,0,0,0,0,2.9568,2.9568,2.9585,2.9584,2.9581,2.9563,2.9563,2.955,2.9548,2.9539,0,2.9532,0,2.9532,2.9531,2.953,0,0,0,2.9583,2.957,2.9567,2.9584,2.9581,2.9563,2.9572,2.9549,2.9547,2.9537,2.9532,2.9531,2.9532,2.953,2.953,2.9479,2.9479,0,0,2.9584,2.958,2.9569,2.9566,2.957,2.9572,2.9571,2.9548,2.9541,2.9532,2.953,2.9531,2.953,2.953,2.9479,2.9479,0,0,0,2.9586,2.958,2.9578,2.9567,2.9564,2.9572,2.957,2.9542,2.9542,2.953,2.9531,2.953,2.9529,2.948,2.9479,2.9461,0,0,0,2.9586,2.9581,2.9579,2.9576,2.9565,2.9553,2.9565,2.9544,2.9541,2.9531,2.953,2.9529,2.948,2.9479,2.9462,2.9452,0,0,0,2.9587,2.9582,2.9578,2.9576,2.9568,2.9554,2.9552,2.9543,2.9542,2.953,2.9529,2.948,2.948,2.9463,2.9454,2.9438,0,0,0,2.9585,2.9561,2.9578,2.9551,2.9568,2.9543,2.9553,2.9534,2.9522,2.953,2.948,2.9479,2.9464,2.9455,2.9439,2.9423,2.9416,0,0,2.9552,2.9557,2.9541,2.9556,2.9527,2.9546,2.9514,2.9506,2.9508,2.9488,2.9487,2.9462,2.9454,2.9438,2.9381,2.9375,0,0,0,2.9529,2.9518,2.9512,2.9501,2.9496,2.949,2.9488,2.9485,2.9469,2.9498,2.9452,2.9447,2.9438,2.9431,2.9426,2.9418,2.9476,2.9476,2.9476,2.9475,2.9481,2.9456,2.9459,2.9449,2.9448,2.944,2.9436,2.9442,2.9432,2.9425,2.939,2.9381,2.9378,2.937,2.9418,2.9418,2.9418,2.9418,2.9427,2.9412,2.9424,2.9404,2.9409,2.9392,2.939,2.9396,2.938,2.9395,2.9387,2.9402,2.9372,2.9365,2.9417,2.9417,2.9417,2.9417,2.9417,2.9391,2.9385,2.9384,2.937,2.9359,2.9363,2.9348,2.9353,2.9357,2.935,2.9344,2.9344,2.9345,2.9347,2.9347,2.9347,2.9346,2.9346,2.9346,2.9355,2.9354,2.9341,2.9335,2.933,2.9323,2.9323,2.9317,2.9312,2.9317,2.9317,2.9325,2.9369,2.9379,2.9344,2.9345,2.9345,2.9345,2.9345,2.9302,2.9316,2.9296,2.9291,2.9284,2.9272,2.928,2.9269,2.9265,2.9257,2.9267,2.9299,2.9303,2.9307,2.9316,2.9267,2.9267,2.9267,2.9267,2.9272,2.9276,2.9257,2.9249,2.9241,2.9246,2.9223,2.9223,2.9224,2.9222,2.923,2.9243,2.9246,2.9248,2.9253,2.9261,2.92,2.92,2.9199,2.924,2.9243,2.9223,2.9226,2.9222,2.9217,2.9196,2.9184,2.9189,2.9197,2.922,2.9223,2.9243,2.925,2.9257,2.9264,2.9279,0,0]}]]